When you browse on this site, cookies collect data to enhance your experience and personalize the content and advertising you see.
Visit our Privacy Policy to learn more. By continuing to use the site, you agree to this use of cookies and data.
  • In United Kingdom
  • List of Countries
  • For 7 days
  • Water Temperature
  • Satellite Maps
  • Weather Map
  • Weather Widgets
  • user-avatar
    Login

    Hourly Weather Borodenki

    Today, 22 February, Friday

    Time Temperature Precipitation Wind Pressure Humidity
    00:00 -14°C° 0.2 mm 6 mps 736 mmHg 84%
    01:00 -14°C° 0.2 mm 6 mps 736 mmHg 85%
    02:00 -14°C° 0.2 mm 7 mps 736 mmHg 85%
    03:00 -14°C° 0.2 mm 7 mps 737 mmHg 84%
    04:00 -15°C° 0.2 mm 7 mps 737 mmHg 83%
    05:00 -15°C° 0.2 mm 7 mps 738 mmHg 83%
    06:00 -15°C° 0.1 mm 7 mps 738 mmHg 82%
    07:00 -15°C° 0.1 mm 7 mps 739 mmHg 82%
    08:00 -15°C° 0.1 mm 7 mps 740 mmHg 82%
    09:00 -15°C° 0.1 mm 7 mps 741 mmHg 81%
    10:00 -15°C° 0.1 mm 7 mps 741 mmHg 80%
    11:00 -14°C° 0.1 mm 7 mps 742 mmHg 79%
    12:00 -14°C° 0 mm 7 mps 743 mmHg 78%
    13:00 -14°C° 0 mm 7 mps 744 mmHg 77%
    14:00 -14°C° 0 mm 7 mps 744 mmHg 76%
    15:00 -14°C° 0 mm 7 mps 745 mmHg 76%
    16:00 -14°C° 0 mm 7 mps 746 mmHg 76%
    17:00 -14°C° 0 mm 6 mps 747 mmHg 76%
    18:00 -14°C° 0 mm 6 mps 748 mmHg 78%
    19:00 -14°C° 0 mm 6 mps 749 mmHg 79%
    20:00 -15°C° 0 mm 6 mps 749 mmHg 80%
    21:00 -14°C° 0 mm 5 mps 750 mmHg 82%
    22:00 -14°C° 0 mm 5 mps 751 mmHg 84%
    23:00 -14°C° 0 mm 5 mps 751 mmHg 85%

    Tomorrow, 23 February, Saturday

    Time Temperature Precipitation Wind Pressure Humidity
    00:00 -15°C° 0 mm 4 mps 752 mmHg 87%
    01:00 -15°C° 0 mm 4 mps 752 mmHg 88%
    02:00 -15°C° 0 mm 4 mps 753 mmHg 90%
    03:00 -16°C° 0 mm 4 mps 753 mmHg 91%
    04:00 -16°C° 0 mm 4 mps 754 mmHg 93%
    05:00 -15°C° 0 mm 3 mps 754 mmHg 94%
    06:00 -16°C° 0 mm 3 mps 754 mmHg 94%
    07:00 -16°C° 0 mm 3 mps 754 mmHg 94%
    08:00 -15°C° 0 mm 2 mps 755 mmHg 93%
    09:00 -14°C° 0 mm 2 mps 755 mmHg 89%
    10:00 -12°C° 0 mm 2 mps 754 mmHg 84%
    11:00 -9°C° 0 mm 2 mps 754 mmHg 79%
    12:00 -8°C° 0 mm 2 mps 754 mmHg 78%
    13:00 -8°C° 0 mm 3 mps 753 mmHg 76%
    14:00 -7°C° 0 mm 3 mps 753 mmHg 74%
    15:00 -9°C° 0 mm 4 mps 752 mmHg 75%
    16:00 -9°C° 0 mm 4 mps 751 mmHg 77%
    17:00 -9°C° 0 mm 4 mps 751 mmHg 78%
    18:00 -9°C° 0.4 mm 4 mps 750 mmHg 82%
    19:00 -10°C° 0.4 mm 5 mps 749 mmHg 87%
    20:00 -10°C° 0.4 mm 5 mps 749 mmHg 91%
    21:00 -10°C° 0.6 mm 5 mps 748 mmHg 92%
    22:00 -9°C° 0.6 mm 4 mps 748 mmHg 93%
    23:00 -8°C° 0.6 mm 4 mps 747 mmHg 93%

    Day after tomorrow, 24 February, Sunday

    Time Temperature Precipitation Wind Pressure Humidity
    00:00 -8°C° 0.3 mm 4 mps 747 mmHg 93%
    01:00 -8°C° 0.3 mm 4 mps 746 mmHg 93%
    02:00 -7°C° 0.3 mm 4 mps 746 mmHg 93%
    03:00 -5°C° 0.2 mm 4 mps 746 mmHg 93%
    04:00 -4°C° 0.2 mm 4 mps 746 mmHg 93%
    05:00 -2°C° 0.2 mm 3 mps 746 mmHg 94%
    06:00 -1°C° 0.1 mm 3 mps 746 mmHg 94%
    07:00 -2°C° 0.1 mm 4 mps 746 mmHg 95%
    08:00 -1°C° 0.1 mm 4 mps 746 mmHg 95%
    09:00 -1°C° 0 mm 4 mps 746 mmHg 96%
    10:00 -1°C° 0 mm 4 mps 746 mmHg 96%
    11:00 -1°C° 0 mm 4 mps 747 mmHg 97%
    12:00 -1°C° 0 mm 4 mps 747 mmHg 97%
    13:00 -1°C° 0 mm 4 mps 747 mmHg 97%
    14:00 -1°C° 0 mm 4 mps 747 mmHg 96%
    15:00 -1°C° 0 mm 4 mps 747 mmHg 96%
    16:00 0°C° 0 mm 3 mps 747 mmHg 96%
    17:00 0°C° 0 mm 3 mps 747 mmHg 95%
    18:00 0°C° 0 mm 3 mps 747 mmHg 95%
    19:00 0°C° 0 mm 3 mps 747 mmHg 95%
    20:00 0°C° 0 mm 3 mps 747 mmHg 96%
    21:00 0°C° 0 mm 3 mps 746 mmHg 96%
    22:00 0°C° 0 mm 3 mps 746 mmHg 96%
    23:00 0°C° 0 mm 3 mps 745 mmHg 96%

    25 February, Monday

    Time Temperature Precipitation Wind Pressure Humidity
    00:00 -1°C° 0.1 mm 4 mps 745 mmHg 96%
    01:00 -1°C° 0.1 mm 4 mps 744 mmHg 95%
    02:00 -1°C° 0.1 mm 4 mps 744 mmHg 95%
    03:00 -1°C° 0.1 mm 4 mps 743 mmHg 95%
    04:00 -1°C° 0.1 mm 5 mps 742 mmHg 95%
    05:00 0°C° 0.1 mm 5 mps 742 mmHg 94%
    06:00 0°C° 0.1 mm 5 mps 741 mmHg 93%
    07:00 0°C° 0.1 mm 5 mps 741 mmHg 91%
    08:00 -1°C° 0.1 mm 6 mps 741 mmHg 89%
    09:00 -2°C° 0.1 mm 6 mps 741 mmHg 87%
    10:00 -2°C° 0.1 mm 6 mps 741 mmHg 85%
    11:00 -2°C° 0.1 mm 6 mps 741 mmHg 83%
    12:00 -2°C° 0 mm 6 mps 741 mmHg 84%
    13:00 -2°C° 0 mm 6 mps 740 mmHg 85%
    14:00 -2°C° 0 mm 6 mps 740 mmHg 85%
    15:00 -2°C° 0 mm 6 mps 740 mmHg 84%
    16:00 -3°C° 0 mm 6 mps 741 mmHg 83%
    17:00 -3°C° 0 mm 6 mps 741 mmHg 82%
    18:00 -4°C° 0 mm 5 mps 740 mmHg 83%
    19:00 -4°C° 0 mm 5 mps 740 mmHg 84%
    20:00 -5°C° 0 mm 5 mps 740 mmHg 86%
    21:00 -5°C° 0 mm 5 mps 740 mmHg 86%
    22:00 -4°C° 0 mm 5 mps 739 mmHg 86%
    23:00 -4°C° 0 mm 5 mps 739 mmHg 86%

    26 February, Tuesday

    Time Temperature Precipitation Wind Pressure Humidity
    00:00 -4°C° 0 mm 5 mps 738 mmHg 87%
    01:00 -4°C° 0 mm 5 mps 738 mmHg 87%
    02:00 -4°C° 0 mm 4 mps 737 mmHg 88%
    03:00 -3°C° 0.1 mm 4 mps 737 mmHg 89%
    04:00 -3°C° 0.1 mm 4 mps 736 mmHg 89%
    05:00 -3°C° 0.1 mm 4 mps 735 mmHg 90%
    06:00 -3°C° 0 mm 4 mps 734 mmHg 90%
    07:00 -2°C° 0 mm 3 mps 734 mmHg 90%
    08:00 -2°C° 0 mm 3 mps 733 mmHg 91%
    09:00 -2°C° 0.2 mm 3 mps 732 mmHg 91%
    10:00 -2°C° 0.2 mm 3 mps 732 mmHg 90%
    11:00 -1°C° 0.2 mm 3 mps 731 mmHg 90%
    12:00 -1°C° 0.1 mm 3 mps 731 mmHg 89%
    13:00 -1°C° 0.1 mm 3 mps 731 mmHg 87%
    14:00 -1°C° 0.1 mm 3 mps 731 mmHg 86%
    15:00 -2°C° 0.1 mm 3 mps 731 mmHg 86%
    16:00 -2°C° 0.1 mm 3 mps 731 mmHg 87%
    17:00 -4°C° 0.1 mm 3 mps 732 mmHg 88%
    18:00 -4°C° 0 mm 3 mps 732 mmHg 89%
    19:00 -5°C° 0 mm 3 mps 733 mmHg 90%
    20:00 -5°C° 0 mm 3 mps 734 mmHg 91%
    21:00 -5°C° 0 mm 4 mps 734 mmHg 91%
    22:00 -5°C° 0 mm 4 mps 734 mmHg 90%
    23:00 -5°C° 0 mm 4 mps 734 mmHg 89%

    27 February, Wednesday

    Time Temperature Precipitation Wind Pressure Humidity
    00:00 -5°C° 0 mm 4 mps 734 mmHg 89%
    01:00 -5°C° 0 mm 4 mps 734 mmHg 89%
    02:00 -5°C° 0 mm 4 mps 734 mmHg 89%
    03:00 -5°C° 0.1 mm 4 mps 735 mmHg 88%
    04:00 -6°C° 0.1 mm 5 mps 735 mmHg 87%
    05:00 -6°C° 0.1 mm 5 mps 735 mmHg 86%
    06:00 -7°C° 0 mm 5 mps 736 mmHg 86%
    07:00 -8°C° 0 mm 5 mps 736 mmHg 86%
    08:00 -9°C° 0 mm 4 mps 737 mmHg 87%
    09:00 -9°C° 0 mm 4 mps 737 mmHg 85%
    10:00 -7°C° 0 mm 3 mps 737 mmHg 83%
    11:00 -7°C° 0 mm 3 mps 737 mmHg 82%
    12:00 -7°C° 0 mm 3 mps 737 mmHg 82%
    13:00 -7°C° 0 mm 3 mps 737 mmHg 83%
    14:00 -7°C° 0 mm 3 mps 737 mmHg 84%
    15:00 -7°C° 0 mm 2 mps 736 mmHg 85%
    16:00 -7°C° 0 mm 2 mps 736 mmHg 87%
    17:00 -8°C° 0 mm 2 mps 735 mmHg 88%
    18:00 -8°C° 0 mm 2 mps 734 mmHg 88%
    19:00 -8°C° 0 mm 3 mps 733 mmHg 87%
    20:00 -8°C° 0 mm 3 mps 733 mmHg 87%
    21:00 -8°C° 0.1 mm 3 mps 731 mmHg 88%
    22:00 -8°C° 0.1 mm 4 mps 730 mmHg 89%
    23:00 -7°C° 0.1 mm 4 mps 729 mmHg 90%
    Show more